This demonstration page uses our WeatherBlox Daily Observations layout. Learn more.

Left ArrowRight Arrow

Hourly Observations for July 9, 2015

Temp ( °F °C ) Dew Point ( °F °C ) Humidity (%) Winds ( mph kmh ) Pressure ( in mb ) Visibility ( mi km ) Precip ( " mm )
12:41 am 00:41 Clear with Mist and Fog 70 21.1 69 20.6 97 97 N N/A 30.03 1017 3 4 N/A
12:53 am 00:53 Clear with Mist and Fog 70 21.1 69 20.6 97 97 N N/A 30.01 1016 3 5 N/A
1:20 am 01:20 Mostly Clear with Mist and Fog 70 21.1 69 20.6 97 97 E 3 6 30.00 1016 4 6 N/A
1:53 am 01:53 Clear with Mist and Fog 71 21.7 70 21.1 96 96 ESE 3 6 29.97 1015 5 8 N/A
2:53 am 02:53 Clear 73 22.8 71 21.7 94 94 VRB 5 7 29.96 1014 9 14 N/A
3:53 am 03:53 Clear 74 23.3 70 21.1 88 88 VRB 5 7 29.94 1014 10 16 N/A
4:53 am 04:53 Clear 74 23.3 70 21.1 88 88 SSW 3 6 29.92 1013 10 16 N/A
5:53 am 05:53 Cloudy 75 23.9 71 21.7 88 88 VRB 6 9 29.92 1013 10 16 N/A
6:12 am 06:12 Cloudy 75 23.9 71 21.7 88 88 VRB 7 11 29.94 1014 10 16 N/A
6:53 am 06:53 Partly Cloudy 75 23.9 71 21.7 88 88 VRB 7 11 29.94 1014 10 16 N/A
7:50 am 07:50 Mostly Cloudy 75 24 70 21 83 83 SSW 8 13 29.97 1015 10 16 N/A
7:53 am 07:53 Cloudy 75 23.9 70 21.1 84 84 VRB 7 11 29.94 1014 10 16 N/A
8:28 am 08:28 Partly Cloudy with Light Rain 76 24.4 70 21.1 82 82 VRB 7 11 29.94 1014 10 16 N/A
8:42 am 08:42 Mostly Cloudy 76 24.4 71 21.7 85 85 VRB 6 9 29.94 1014 10 16 N/A
8:53 am 08:53 Cloudy with Light Rain 75 23.9 71 21.7 88 88 VRB 5 7 29.94 1014 9 14 N/A
9:53 am 09:53 Cloudy 74 23.3 71 21.7 91 91 VRB 7 11 29.96 1014 8 13 0.01 0.25
10:05 am 10:05 Cloudy with Light Rain 74 23.3 71 21.7 91 91 SW 6 9 29.97 1015 4 6 N/A
10:53 am 10:53 Cloudy with Light Rain 74 23.3 72 22.2 94 94 SW 9 15 29.96 1015 3 5 N/A
11:53 am 11:53 Cloudy 77 25 71 21.7 82 82 WSW 9 15 29.97 1015 10 16 N/A
12:15 pm 12:15 Cloudy 76 24.4 71 21.7 85 85 WSW 9 15 30.00 1016 10 16 N/A
12:35 pm 12:35 Cloudy with Light Rain 75 23.9 71 21.7 88 88 W 7 11 30.00 1016 7 11 0.01 0.25
12:46 pm 12:46 Mostly Cloudy with Light Rain 78 25.6 71 21.7 79 79 W 10 17 30.00 1016 10 16 0.01 0.25
12:53 pm 12:53 Partly Cloudy 79 26.1 71 21.7 77 77 W 14 22 29.98 1015 10 16 0.01 0.25
1:53 pm 13:53 Cloudy 79 26.1 68 20 69 69 W 14 22 30.00 1016 10 16 N/A
2:34 pm 14:34 Mostly Cloudy 80 26.7 69 20.6 69 69 W 10 17 29.97 1015 10 16 N/A
2:53 pm 14:53 Cloudy 81 27.2 69 20.6 67 67 W 8 13 29.99 1016 10 16 N/A
3:05 pm 15:05 Cloudy 79 26.1 68 20 69 69 VRB 6 9 30.00 1016 10 16 N/A
3:53 pm 15:53 Mostly Cloudy 79 26.1 68 20 69 69 W 9 15 29.99 1016 10 16 N/A
4:53 pm 16:53 Mostly Cloudy 80 26.7 68 20 67 67 W 6 9 29.99 1016 10 16 N/A
5:53 pm 17:53 Partly Cloudy 79 26.1 68 20 69 69 W 7 11 29.99 1016 10 16 N/A
6:53 pm 18:53 Cloudy 78 25.6 69 20.6 74 74 WSW 7 11 30.01 1016 10 16 N/A
7:53 pm 19:53 Cloudy 76 24.4 69 20.6 79 79 NW 7 11 30.02 1017 10 16 N/A
8:53 pm 20:53 Mostly Cloudy 73 22.8 67 19.4 81 81 NNW 7 11 30.04 1017 10 16 N/A
9:53 pm 21:53 Mostly Clear 71 21.7 65 18.3 81 81 NW 5 7 30.05 1018 10 16 N/A
10:53 pm 22:53 Mostly Cloudy 69 20.6 66 18.9 90 90 N N/A 30.07 1018 8 13 N/A
11:53 pm 23:53 Mostly Clear with Mist and Fog 66 18.9 64 17.8 93 93 N N/A 30.07 1018 6 10 N/A

Powered by AerisWeather